Location: Mauries
(43.6188°N, 0.3322°W)
Time: 05:44:48
(UTC+00:00)

ATLAS 2AS CENTAUR R/B - Pass Details

Date: 14 January 2026
Orbit: 1050 x 1161 km, 63.7° (Epoch: 15 February)

Event Time Altitude Azimuth Distance (km) Brightness Sun altitude
Exits shadow 06:10:30 - 328° (NNW) 2,960 4.6 -14.5°
Reaches altitude 10° 06:10:44 10° 328° (NNW) 2,876 4.5 -14.4°
Maximum altitude 06:17:26 61° 49° (NE) 1,181 3.1 -13.3°
Drops below altitude 10° 06:24:07 10° 129° (SE) 2,868 6.2 -12.1°
Sets 06:26:48 0° 133° (SE) 3,828 6.9 -11.7°
